Overview Statistics Trail Chart Weather Telemetry Raw packets
 

This is the latest recevied weather packets stored in our database for station/object KGRR-WX. If no packets are shown the sender has not sent any weather packets the latest 10 day(s).

<< 26 27 28 29 30 31 32 >>
Time Temp. Humidity Pressure Rain* Wind** Luminosity Snow
1787973310 17.78° C 66% 991 hPa 0 mm - - -
1787972405 17.78° C 66% 991 hPa 0 mm - - -
1787971511 18.33° C 62% 992 hPa 0 mm - - -
1787970605 19.44° C 57% 991.8 hPa 0 mm - - -
1787969705 19.44° C 57% 991.8 hPa 0 mm - - -
1787968808 20° C 57% 991.8 hPa 0 mm - - -
1787967904 20° C 52% 991.5 hPa 0 mm - - -
1787967008 20.56° C 52% 991.5 hPa 0 mm - - -
1787966105 21.11° C 52% 991.5 hPa 0 mm - - -
1787965208 21.11° C 52% 991.5 hPa 0 mm - - -
1787964316 21.67° C 45% 992.1 hPa 0 mm - - -
1787963405 22.22° C 45% 992 hPa 0 mm - - -
1787962507 22.78° C 45% 992 hPa 0 mm - - -
1787961606 23.89° C 45% 992 hPa 0 mm - - -
1787960705 24.44° C 42% 991.3 hPa 0 mm - - -
1787959808 25° C 46% 991.8 hPa 0 mm - - -
1787958905 25° C 46% 991.8 hPa 0 mm - - -
1787958006 25° C 46% 991.8 hPa 0 mm - - -
1787957105 25° C 43% 991.7 hPa 0 mm - - -
1787956206 26.11° C 39% 992.3 hPa 0 mm - - -
1787955308 26.11° C 39% 992.3 hPa 0 mm - - -
1787954417 26.11° C 39% 992.3 hPa 0 mm - - -
1787953508 26.67° C 34% 992.3 hPa 0 mm - - -
1787952608 26.67° C 23% 992.6 hPa 0 mm - - -
1787951708 26.67° C 23% 992.6 hPa 0 mm - - -

* Rain latest hour (hover to see other rain measurements)
** Current wind speed in m/s (hover to see current wind gust speed)